Regional Weather Roundup
Issued by NWS Northern Indiana

Home | Current Version | Previous Version | Text Only | Print | Product List | Glossary Off
Versions: 1 2 3 4 5 6 7 8 9 10 11 12 13 14 15 16 17 18 19 20 21 22 23 24 25 26 27 28 29 30 31 32 33 34 35 36 37 38 39 40 41 42 43 44 45 46 47 48 49 50

000
ASUS43 KIWX 262200
RWRIWX

KIWX WEATHER ROUNDUP
NATIONAL WEATHER SERVICE NORTHERN INDIANA
600 PM EDT WED APR 26 2017

NOTE: "FAIR" INDICATES FEW OR NO CLOUDS BELOW 12,000 FEET WITH NO
SIGNIFICANT WEATHER AND/OR OBSTRUCTIONS TO VISIBILITY.

* THESE STATIONS ARE NOT UNDER NWS QUALITY CONTROL. THEY ALSO MAY NOT
  REPORT WEATHER SUCH AS PRECIPITATION OR FOG.

INZ001>027-262300-
NORTHERN INDIANA

CITY           SKY/WX    TMP DP  RH WIND       PRES   REMARKS
GARY*          PTSUNNY   77  48  36 S12G23    29.49S
KNOX*          CLOUDY    79  23  12 W17G23    29.49S
SOUTH BEND     MOSUNNY   77  55  46 SW14G25   29.50R
GOSHEN         PTSUNNY   81  52  36 SW18      29.49S
MONTICELLO*    CLOUDY    79  54  41 SW17G24   29.50S
ANGOLA*        MOSUNNY   82  77  83 SW13      29.51R
FORT WAYNE     MOSUNNY   81  57  43 SW16G24   29.51S
PERU/GRISSOM   MOSUNNY   80  58  46 SW17      29.50S

$$
INZ028>050-262300-
CENTRAL INDIANA

CITY           SKY/WX    TMP DP  RH WIND       PRES   REMARKS
LAFAYETTE      CLOUDY    77  57  50 W10G17    29.49F
KOKOMO*        PTSUNNY   81  57  43 SW17      29.52F
MUNCIE*        MOSUNNY   84  57  39 SW14G23   29.52F
INDIANAPOLIS   PTSUNNY   79  59  50 S9        29.50F

$$
MIZ043>046-050>051-056>058-064>065-071>073-077>080-262300-
SOUTHWEST LOWER MICHIGAN

CITY           SKY/WX    TMP DP  RH WIND       PRES   REMARKS
BATTLE CREEK   CLOUDY    79  57  46 SW17      29.49F
BENTON HARBOR  CLOUDY    71  53  52 W14G22    29.49S
COLDWATER*     PTSUNNY   80  53  39 SW15G21   29.50S
HILLSDALE*     MOSUNNY   79  57  47 S14       29.52F
HOLLAND        SUNNY     73  58  59 W15       29.50S
GRAND RAPIDS   MOSUNNY   76  58  53 W18G25    29.49R
KALAMAZOO      CLOUDY    78  55  44 W10       29.49R
STURGIS*       PTSUNNY   79  57  46 SW15G23   29.49R
THREE RIVERS*  FAIR      79  52  39 SW13G18   29.49R

$$
OHZ001>008-015>018-024>025-262300-
NORTHWEST OHIO

CITY           SKY/WX    TMP DP  RH WIND       PRES   REMARKS
DEFIANCE       MOSUNNY   81  57  43 S14G23    29.51F
FINDLAY        SUNNY     85  53  33 S22       29.54S
TOLEDO EXPRESS MOSUNNY   83  55  38 S13G26    29.52S
TOLEDO METCALF SUNNY     85  53  33 SW20G25   29.53F
LIMA           SUNNY     82  56  40 S16G23    29.55F

$$
AND FOR LAKE MICHIGAN COASTAL AND OPEN LAKE BUOY OBSERVATIONS

STATION/POSITION TEMP    WIND        PRES    VSBY  WAVE
                 AIR SEA DIR/SP/G                  HT/PER
                 (F)     (DEG/KT/KT) (MB)    (MI)  (FT/S)
CALUMET HARBOR    75     190/ 12/ 16  997.7F
MICHIGAN CITY     71     230/ 16/ 18   N/A
BURNS HARBOR      74     230/ 10/ 20  999.0R
SOUTH LAKE BUOY   51 42  240/ 10/ 10  998.2          1/ 4
4 MI NW BRIDGMAN  54 49  290/  8/ 10  998.9R         1/ 3
MICHIGAN CITY     60 49                N/A           2/ 4

$$
&&



USA.gov is the U.S. government's official web portal to all federal, state and local government web resources and services.